Location: Bismarck
(46.7731°N, 100.8200°W)
Time: 12:56:35
(UTC-05:00)

Amateur Radio Satellites - All Passes

Search period start: 28 April 2017 12:26
Search period end: 29 April 2017 12:26
Location: Bismarck, 46.7731°N, 100.8200°W

Satellite Date Start Highest point End Downlink Frequencies (MHz)
Time Altitude Azimuth
Oscar 11 28 Apr 12:30:45 12:31:57 11° 303° (WNW) 12:33:08 .
ESTCUBE 1 28 Apr 12:33:01 12:36:54 27° 94° (E) 12:40:44 437.505/2401.250
DUCHIFAT 1 28 Apr 12:44:23 12:48:35 89° 74° (ENE) 12:52:48 145.980
EO-79 28 Apr 12:44:42 12:48:54 76° 256° (WSW) 12:53:08 145.935-145.965
SO-50 28 Apr 12:48:44 12:48:59 10° 16° (NNE) 12:49:14 436.795
LO-87 28 Apr 13:07:59 13:11:32 66° 285° (WNW) 13:15:03 145.935 - 145.965
AO-7 28 Apr 13:12:40 13:15:21 12° 32° (NNE) 13:18:02 .
AO-85 28 Apr 13:18:35 13:22:41 50° 122° (ESE) 13:26:35 145.980
Tancredo 1 28 Apr 13:25:09 13:28:12 48° 18° (NNE) 13:31:13 437.200
POLYITAN 1 28 Apr 13:25:18 13:28:58 28° 264° (W) 13:32:39 437.675
SPROUT 28 Apr 13:26:02 13:29:34 25° 94° (E) 13:33:04 437.525
PCSat 28 Apr 13:26:49 13:30:43 20° 253° (WSW) 13:34:35 145.827
50 SAT 28 Apr 13:30:30 13:32:29 14° 92° (E) 13:34:28 437.505
QB50P2 28 Apr 13:32:24 13:35:47 23° 266° (W) 13:39:10 145.880/145.840
BUGSAT 1 28 Apr 13:38:27 13:42:34 72° 256° (WSW) 13:46:40 437.445
Oscar 19 28 Apr 13:43:13 13:48:08 47° 69° (ENE) 13:53:07 437.125/150
NANOSAT C BR1 28 Apr 13:53:04 13:55:51 17° 269° (W) 13:58:38 145.865
RS-15 28 Apr 13:58:32 14:09:39 36° 14° (NNE) 14:20:29 29.354- 29.394
Gurwin Techsat 1B 28 Apr 14:00:30 14:05:28 42° 67° (ENE) 14:10:27 435.225
ISS 28 Apr 14:01:17 14:04:33 67° 23° (NNE) 14:07:48 437.550
ESTCUBE 1 28 Apr 14:09:35 14:13:45 36° 292° (WNW) 14:17:54 437.505/2401.250
VELOX 1 28 Apr 14:13:47 14:18:15 80° 102° (ESE) 14:22:40 145.980
BEESAT 3 28 Apr 14:17:48 14:21:30 39° 119° (ESE) 14:25:15 437.485
BEESAT 2 28 Apr 14:22:21 14:25:06 18° 113° (ESE) 14:27:53 435.950
UKube-1 28 Apr 14:22:28 14:26:11 27° 95° (E) 14:29:52 .
YUBILEINY 28 Apr 14:24:37 14:30:33 19° 55° (NE) 14:36:27 435.215
SO-50 28 Apr 14:27:00 14:30:57 29° 40° (NE) 14:34:53 436.795
AO-7 28 Apr 14:58:23 15:05:51 40° 56° (ENE) 15:13:21 .
DX 1 28 Apr 14:59:07 15:03:31 89° 280° (W) 15:07:52 434.975-435.025
AO-85 28 Apr 14:59:55 15:03:17 24° 320° (NW) 15:06:33 145.980
Tancredo 1 28 Apr 15:01:11 15:04:02 34° 216° (SW) 15:06:53 437.200
SPROUT 28 Apr 15:01:41 15:05:32 34° 292° (WNW) 15:09:21 437.525
50 SAT 28 Apr 15:02:19 15:05:37 40° 289° (WNW) 15:08:53 437.505
ITAMSAT 1 28 Apr 15:13:51 15:18:25 32° 64° (ENE) 15:22:59 435.822/435.867
Oscar 19 28 Apr 15:23:27 15:27:41 25° 267° (W) 15:31:57 437.125/150
ISS 28 Apr 15:38:09 15:40:49 23° 220° (SW) 15:43:29 437.550
Gurwin Techsat 1B 28 Apr 15:40:54 15:45:32 30° 265° (W) 15:50:11 435.225
VELOX 1 28 Apr 15:51:55 15:54:05 14° 302° (WNW) 15:56:14 145.980
BEESAT 3 28 Apr 15:55:46 15:59:11 27° 318° (NW) 16:02:41 437.485
UKube-1 28 Apr 15:58:22 16:02:13 32° 293° (WNW) 16:06:03 .
BEESAT 2 28 Apr 15:58:36 16:02:30 52° 312° (NW) 16:06:28 435.950
BEESAT 28 Apr 16:01:27 16:05:30 27° 95° (E) 16:09:33 436.000
SO-50 28 Apr 16:07:16 16:11:36 48° 240° (WSW) 16:15:56 436.795
RS-15 28 Apr 16:12:36 16:24:57 67° 45° (NE) 16:36:43 29.354- 29.394
YUBILEINY 28 Apr 16:20:14 16:29:02 77° 79° (E) 16:37:51 435.215
DX 1 28 Apr 16:37:26 16:39:00 12° 303° (WNW) 16:40:33 434.975-435.025
ITUPSAT 1 28 Apr 16:43:03 16:47:49 65° 102° (ESE) 16:52:34 437.325
AO-7 28 Apr 16:50:15 16:58:21 57° 257° (WSW) 17:06:31 .
ITAMSAT 1 28 Apr 16:52:59 16:57:48 38° 262° (W) 17:02:38 435.822/435.867
KKS-1 28 Apr 17:12:07 17:14:02 13° 89° (E) 17:15:58 437.445
MOZHAYETS 4 28 Apr 17:13:18 17:17:56 70° 102° (ESE) 17:22:33
DOVE 4 28 Apr 17:23:47 17:27:32 20° 61° (ENE) 17:31:13 437.250
BEESAT 28 Apr 17:38:57 17:43:23 39° 293° (WNW) 17:47:48 436.000
BEESAT 2 28 Apr 17:39:31 17:41:10 12° 332° (NNW) 17:42:51 435.950
XW-2D 28 Apr 17:43:32 17:45:16 13° 62° (ENE) 17:47:01 145.860 - 145.880
HO-68 28 Apr 17:45:04 17:47:33 12° 42° (NE) 17:50:02 435.675
XW-2B 28 Apr 17:50:06 17:52:12 15° 63° (ENE) 17:54:20 145.730 - 145.750
KAITUO 1B 28 Apr 17:54:48 17:56:37 13° 62° (ENE) 17:58:25 145.475/437.950
XW-2C 28 Apr 18:01:26 18:04:08 19° 65° (ENE) 18:06:51 145.795 - 145.815
LilacSat-2 28 Apr 18:02:46 18:05:38 21° 66° (ENE) 18:08:29 437.200
CUBESAT XI-V 28 Apr 18:10:00 18:14:37 49° 99° (E) 18:19:10 437.345
CUTE-I 28 Apr 18:16:01 18:20:50 35° 65° (ENE) 18:25:38 437.470
YUBILEINY 28 Apr 18:18:09 18:24:55 26° 281° (W) 18:31:44 435.215
ITUPSAT 1 28 Apr 18:21:57 18:25:10 18° 300° (WNW) 18:28:23 437.325
XW-2F 28 Apr 18:24:31 18:27:51 32° 69° (ENE) 18:31:12 145.980 - 146.000
RS-15 28 Apr 18:25:45 18:36:57 45° 251° (WSW) 18:47:42 29.354- 29.394
NUDT-PHONESAT 28 Apr 18:29:26 18:32:38 29° 69° (ENE) 18:35:53 437.300
KKS-1 28 Apr 18:46:41 18:51:08 74° 285° (WNW) 18:55:32 437.445
AO-7 28 Apr 18:51:18 18:52:59 11° 278° (W) 18:54:40 .
MOZHAYETS 4 28 Apr 18:51:45 18:54:34 16° 300° (WNW) 18:57:22
O/OREOS (USA 219) 28 Apr 18:52:27 18:54:26 12° 43° (NE) 18:56:25 437.305
DOVE 4 28 Apr 18:59:28 19:04:45 67° 259° (W) 19:09:54 437.250
STARS 28 Apr 19:12:11 19:16:36 88° 275° (W) 19:20:57 437.465
XW-2D 28 Apr 19:15:18 19:18:59 59° 259° (W) 19:22:44 145.860 - 145.880
XW-2B 28 Apr 19:22:23 19:26:01 50° 260° (W) 19:29:42 145.730 - 145.750
CUBEBUG 2 28 Apr 19:25:21 19:27:22 13° 60° (ENE) 19:29:23 437.445
KAITUO 1B 28 Apr 19:26:33 19:30:11 55° 260° (W) 19:33:51 145.475/437.950
HO-68 28 Apr 19:26:50 19:33:36 48° 64° (ENE) 19:40:25 435.675
CUTE 1.7 + AOD 2 28 Apr 19:30:43 19:34:19 28° 67° (ENE) 19:37:58 437.475
XW-2C 28 Apr 19:34:39 19:38:07 35° 263° (W) 19:41:36 145.795 - 145.815
LilacSat-2 28 Apr 19:36:18 19:39:43 33° 263° (W) 19:43:11 437.200
XW-2A 28 Apr 19:37:45 19:40:40 28° 70° (ENE) 19:43:35 145.665 - 145.685
NO-84 28 Apr 19:37:50 19:40:54 24° 134° (SE) 19:43:47 435.350 FM
STRAND 1 28 Apr 19:41:41 19:42:06 10° 85° (E) 19:42:32 437.568
SEEDS 28 Apr 19:46:27 19:50:00 27° 67° (ENE) 19:53:35 437.485
CUBESAT XI-V 28 Apr 19:48:03 19:51:40 22° 297° (WNW) 19:55:16 437.345
CUTE-I 28 Apr 19:55:57 20:00:51 36° 264° (W) 20:05:46 437.470
ZACube-1 28 Apr 19:59:09 19:59:53 10° 58° (ENE) 20:00:38 437.345
XW-2F 28 Apr 19:59:14 20:02:04 20° 267° (W) 20:04:55 145.980 - 146.000
NUDT-PHONESAT 28 Apr 20:03:45 20:06:36 21° 266° (W) 20:09:28 437.300
AO-73 28 Apr 20:04:24 20:05:22 11° 58° (ENE) 20:06:21 145.935
AO-85 28 Apr 20:07:13 20:09:51 17° 35° (NE) 20:12:31 145.980
Oscar 11 28 Apr 20:16:06 20:18:04 13° 59° (ENE) 20:20:02 .
KKS-1 28 Apr 20:26:30 20:26:52 10° 305° (NW) 20:27:15 437.445
O/OREOS (USA 219) 28 Apr 20:30:08 20:34:44 73° 65° (ENE) 20:39:16 437.305
UWE-3 28 Apr 20:41:21 20:45:22 44° 71° (ENE) 20:49:21 435.000/436.395/437.385
AAUSAT CUBESAT 2 28 Apr 20:46:51 20:50:54 57° 73° (ENE) 20:55:01 437.432
STARS 28 Apr 20:50:42 20:52:14 12° 303° (WNW) 20:53:45 437.465
BEESAT 3 28 Apr 20:55:19 20:57:18 13° 29° (NNE) 20:59:18 437.485
CUBEBUG 2 28 Apr 20:59:09 21:03:29 74° 258° (WSW) 21:07:42 437.445
M-CUBED/EXP-1 PRIME 28 Apr 21:05:39 21:09:30 35° 102° (ESE) 21:13:02 437.505
CUTE 1.7 + AOD 2 28 Apr 21:06:22 21:10:05 30° 265° (W) 21:13:52 437.475
XW-2A 28 Apr 21:11:05 21:13:29 18° 266° (W) 21:15:53 145.665 - 145.685
DELFI C3 28 Apr 21:12:20 21:14:22 14° 61° (ENE) 21:16:24 145.870
NO-84 28 Apr 21:14:44 21:18:17 55° 330° (NNW) 21:21:32 435.350 FM
HO-68 28 Apr 21:14:52 21:21:27 39° 263° (W) 21:28:06 435.675
STRAND 1 28 Apr 21:17:00 21:22:08 77° 104° (ESE) 21:27:15 437.568
OBJECT BX 28 Apr 21:20:05 21:21:03 11° 60° (ENE) 21:21:59 145.990 - 145.960
SEEDS 28 Apr 21:21:53 21:25:37 31° 265° (W) 21:29:24 437.485
ZACube-1 28 Apr 21:31:19 21:35:30 88° 79° (ENE) 21:39:40 437.345
AO-73 28 Apr 21:36:47 21:40:57 89° 268° (W) 21:45:07 145.935
AO-85 28 Apr 21:46:46 21:50:44 81° 235° (SW) 21:54:50 145.980
Oscar 11 28 Apr 21:49:18 21:53:36 79° 257° (WSW) 21:57:56 .
O/OREOS (USA 219) 28 Apr 22:11:14 22:13:31 14° 262° (W) 22:15:46 437.305
UWE-3 28 Apr 22:19:06 22:22:03 18° 268° (W) 22:25:00 435.000/436.395/437.385
AAUSAT CUBESAT 2 28 Apr 22:24:24 22:26:44 15° 270° (W) 22:29:05 437.432
BEESAT 3 28 Apr 22:31:42 22:35:43 61° 50° (NE) 22:39:40 437.485
PRISM 28 Apr 22:32:18 22:34:55 16° 91° (E) 22:37:32 437.425
BEESAT 2 28 Apr 22:36:05 22:39:46 32° 43° (NE) 22:43:25 435.950
M-CUBED/EXP-1 PRIME 28 Apr 22:40:19 22:43:45 25° 302° (WNW) 22:47:00 437.505
DELFI C3 28 Apr 22:44:42 22:48:39 64° 258° (WSW) 22:52:39 145.870
OBJECT BX 28 Apr 22:50:34 22:54:12 69° 259° (W) 22:57:50 145.990 - 145.960
NO-84 28 Apr 22:53:43 22:56:18 20° 350° (N) 22:58:46 435.350 FM
FO-29 28 Apr 22:55:19 22:58:50 18° 91° (E) 23:02:28 435.910
STRAND 1 28 Apr 22:57:27 23:00:43 17° 302° (WNW) 23:03:59 437.568
TIGRISAT 28 Apr 23:26:10 23:30:08 36° 97° (E) 23:34:09 435.000
ESTCUBE 1 28 Apr 23:35:03 23:39:07 34° 68° (ENE) 23:43:13 437.505/2401.250
VELOX 1 28 Apr 23:39:51 23:42:01 13° 58° (ENE) 23:44:09 145.980
LO-87 28 Apr 23:46:16 23:49:54 74° 75° (ENE) 23:53:32 145.935 - 145.965
UNISAT 6 28 Apr 23:47:58 23:52:15 66° 102° (ESE) 23:56:34 437.425
PRISM 29 Apr 00:06:28 00:10:30 51° 289° (WNW) 00:14:30 437.425
BEESAT 3 29 Apr 00:10:24 00:12:51 16° 248° (WSW) 00:15:16 437.485
BEESAT 2 29 Apr 00:13:51 00:17:32 33° 242° (WSW) 00:21:11 435.950
SPROUT 29 Apr 00:21:58 00:25:36 28° 67° (ENE) 00:29:16 437.525
DX 1 29 Apr 00:23:19 00:25:44 15° 59° (ENE) 00:28:09 434.975-435.025
DUCHIFAT 1 29 Apr 00:27:37 00:28:55 11° 88° (E) 00:30:13 145.980
EO-79 29 Apr 00:27:46 00:30:01 14° 90° (E) 00:32:16 145.935-145.965
NO-84 29 Apr 00:32:10 00:34:39 21° 12° (NNE) 00:37:01 435.350 FM
FO-29 29 Apr 00:39:16 00:44:26 65° 288° (WNW) 00:49:54 435.910
TIGRISAT 29 Apr 01:03:12 01:06:41 24° 295° (WNW) 01:10:11 435.000
POLYITAN 1 29 Apr 01:06:33 01:10:25 35° 97° (E) 01:14:17 437.675
ESTCUBE 1 29 Apr 01:12:06 01:15:58 28° 265° (W) 01:19:52 437.505/2401.250
QB50P2 29 Apr 01:13:12 01:17:15 44° 99° (E) 01:21:17 145.880/145.840
VELOX 1 29 Apr 01:13:22 01:17:50 82° 256° (WSW) 01:22:19 145.980
BUGSAT 1 29 Apr 01:18:53 01:20:41 13° 90° (E) 01:22:28 437.445
UKube-1 29 Apr 01:19:22 01:23:16 34° 67° (ENE) 01:27:12 .
AIST 2D 29 Apr 01:21:02 01:24:34 74° 283° (WNW) 01:28:05 435.315
UNISAT 6 29 Apr 01:26:04 01:28:28 15° 300° (WNW) 01:30:55 437.425
NANOSAT C BR1 29 Apr 01:32:31 01:36:40 61° 101° (E) 01:40:48 145.865
50 SAT 29 Apr 01:37:09 01:40:37 71° 258° (WSW) 01:44:08 437.505
Oscar 19 29 Apr 01:53:32 01:55:54 13° 87° (E) 01:58:14 437.125/150
DX 1 29 Apr 01:57:00 02:01:22 72° 258° (WSW) 02:05:46 434.975-435.025
SPROUT 29 Apr 01:57:39 02:01:27 31° 264° (W) 02:05:16 437.525
DUCHIFAT 1 29 Apr 02:00:56 02:05:06 74° 285° (WNW) 02:09:16 145.980
EO-79 29 Apr 02:02:02 02:06:11 60° 287° (WNW) 02:10:18 145.935-145.965
NO-84 29 Apr 02:09:34 02:12:35 74° 33° (NNE) 02:15:26 435.350 FM
Gurwin Techsat 1B 29 Apr 02:15:32 02:17:44 12° 87° (E) 02:19:55 435.225
ITUPSAT 1 29 Apr 02:17:16 02:19:58 15° 58° (ENE) 02:22:40 437.325
PCSat 29 Apr 02:27:12 02:32:02 34° 112° (ESE) 02:36:54 145.827
FO-29 29 Apr 02:27:42 02:28:38 10° 308° (NW) 02:29:33 435.910
POLYITAN 1 29 Apr 02:42:40 02:46:04 24° 295° (WNW) 02:49:27 437.675
MOZHAYETS 4 29 Apr 02:43:51 02:45:46 13° 57° (ENE) 02:47:43
QB50P2 29 Apr 02:49:42 02:52:45 20° 297° (WNW) 02:55:49 145.880/145.840
BUGSAT 1 29 Apr 02:52:28 02:56:26 61° 287° (WNW) 03:00:24 437.445
UKube-1 29 Apr 02:55:41 02:59:21 26° 265° (W) 03:03:00 .
NANOSAT C BR1 29 Apr 03:09:28 03:11:55 15° 299° (WNW) 03:14:23 145.865
BEESAT 29 Apr 03:10:20 03:14:48 43° 69° (ENE) 03:19:18 436.000
Oscar 19 29 Apr 03:30:41 03:35:56 89° 285° (WNW) 03:41:08 437.125/150
YUBILEINY 29 Apr 03:32:25 03:37:35 18° 74° (ENE) 03:42:45 435.215
NO-84 29 Apr 03:48:27 03:49:36 12° 231° (SW) 03:50:45 435.350 FM
ITUPSAT 1 29 Apr 03:52:26 03:57:11 80° 256° (WSW) 04:01:59 437.325
Gurwin Techsat 1B 29 Apr 03:53:06 03:58:28 86° 108° (ESE) 04:03:47 435.225
PCSat 29 Apr 04:10:09 04:15:19 44° 311° (NW) 04:20:32 145.827
KKS-1 29 Apr 04:12:23 04:15:27 18° 61° (ENE) 04:18:31 437.445
MOZHAYETS 4 29 Apr 04:17:41 04:22:14 90° 200° (SSW) 04:26:50
STARS 29 Apr 04:37:14 04:39:45 15° 59° (ENE) 04:42:15 437.465
AO-7 29 Apr 04:48:18 04:56:07 42° 99° (E) 05:03:53 .
BEESAT 29 Apr 04:48:55 04:52:45 24° 266° (W) 04:56:37 436.000
ITAMSAT 1 29 Apr 05:02:16 05:07:24 60° 102° (ESE) 05:12:31 435.822/435.867
Oscar 19 29 Apr 05:11:36 05:14:31 15° 304° (NW) 05:17:26 437.125/150
CUBESAT XI-V 29 Apr 05:15:43 05:20:20 66° 73° (ENE) 05:25:00 437.345
YUBILEINY 29 Apr 05:24:13 05:32:53 79° 96° (E) 05:41:38 435.215
Gurwin Techsat 1B 29 Apr 05:34:30 05:37:43 16° 304° (WNW) 05:40:56 435.225
KKS-1 29 Apr 05:47:12 05:51:36 56° 259° (WSW) 05:56:01 437.445
PCSat 29 Apr 05:57:31 06:00:11 14° 335° (NNW) 06:02:51 145.827
MOZHAYETS 4 29 Apr 05:59:16 06:00:05 10° 274° (W) 06:00:54
STARS 29 Apr 06:11:10 06:15:33 70° 257° (WSW) 06:19:58 437.465
M-CUBED/EXP-1 PRIME 29 Apr 06:21:45 06:23:44 13° 51° (NE) 06:25:43 437.505
SO-50 29 Apr 06:24:18 06:28:09 27° 115° (ESE) 06:31:59 436.795
AO-7 29 Apr 06:41:05 06:49:02 52° 299° (WNW) 06:57:00 .
RS-15 29 Apr 06:41:21 06:50:53 29° 101° (ESE) 07:00:34 29.354- 29.394
ITAMSAT 1 29 Apr 06:42:34 06:46:27 22° 300° (WNW) 06:50:20 435.822/435.867
XW-2D 29 Apr 06:46:37 06:48:06 12° 89° (E) 06:49:34 145.860 - 145.880
XW-2B 29 Apr 06:53:11 06:55:11 14° 90° (E) 06:57:10 145.730 - 145.750
CUBESAT XI-V 29 Apr 06:55:25 06:58:10 15° 271° (W) 07:00:58 437.345
DOVE 4 29 Apr 06:56:24 07:00:17 26° 93° (E) 07:03:58 437.250
KAITUO 1B 29 Apr 06:56:31 06:57:59 12° 89° (E) 06:59:26 145.475/437.950
STRAND 1 29 Apr 06:58:15 07:02:07 22° 61° (ENE) 07:05:59 437.568
XW-2C 29 Apr 07:04:37 07:07:22 19° 93° (E) 07:10:06 145.795 - 145.815
LilacSat-2 29 Apr 07:06:41 07:09:37 20° 93° (E) 07:12:33 437.200
YUBILEINY 29 Apr 07:23:42 07:30:43 27° 299° (WNW) 07:37:49 435.215
XW-2F 29 Apr 07:27:29 07:30:55 31° 96° (E) 07:34:21 145.980 - 146.000
NUDT-PHONESAT 29 Apr 07:30:30 07:33:44 27° 96° (E) 07:36:59 437.300
Tancredo 1 29 Apr 07:38:21 07:39:29 12° 134° (SE) 07:40:37 437.200
M-CUBED/EXP-1 PRIME 29 Apr 07:52:44 07:57:23 75° 69° (ENE) 08:02:02 437.505
SO-50 29 Apr 08:03:59 08:08:25 46° 314° (NW) 08:12:50 436.795
CUTE-I 29 Apr 08:09:18 08:14:38 72° 103° (ESE) 08:19:56 437.470
XW-2D 29 Apr 08:18:53 08:22:40 60° 286° (WNW) 08:26:26 145.860 - 145.880
ISS 29 Apr 08:19:51 08:22:26 22° 139° (SE) 08:25:03 437.550
XW-2B 29 Apr 08:25:57 08:29:41 51° 287° (WNW) 08:33:24 145.730 - 145.750
KAITUO 1B 29 Apr 08:28:38 08:32:22 59° 286° (WNW) 08:36:05 145.475/437.950
XW-2A 29 Apr 08:29:26 08:31:59 20° 94° (E) 08:34:33 145.665 - 145.685
DOVE 4 29 Apr 08:33:53 08:38:04 34° 293° (WNW) 08:42:01 437.250
AO-7 29 Apr 08:35:38 08:39:58 15° 322° (NW) 08:44:19 .
STRAND 1 29 Apr 08:35:54 08:40:54 57° 259° (WSW) 08:45:57 437.568
XW-2C 29 Apr 08:38:09 08:41:42 37° 289° (WNW) 08:45:14 145.795 - 145.815
HO-68 29 Apr 08:38:38 08:45:14 38° 96° (E) 08:51:49 435.675
LilacSat-2 29 Apr 08:40:29 08:43:59 34° 290° (WNW) 08:47:29 437.200
CUBEBUG 2 29 Apr 08:47:38 08:50:29 18° 92° (E) 08:53:21 437.445
CUTE 1.7 + AOD 2 29 Apr 08:47:41 08:51:41 37° 97° (E) 08:55:40 437.475
RS-15 29 Apr 08:49:38 09:01:49 89° 118° (ESE) 09:14:17 29.354- 29.394
XW-2F 29 Apr 09:01:55 09:04:55 22° 293° (WNW) 09:07:54 145.980 - 146.000
SEEDS 29 Apr 09:02:13 09:06:08 34° 97° (E) 09:10:02 437.485
NUDT-PHONESAT 29 Apr 09:04:32 09:07:34 24° 293° (WNW) 09:10:36 437.300
Tancredo 1 29 Apr 09:11:48 09:14:52 72° 151° (SSE) 09:17:58 437.200
FO-29 29 Apr 09:13:15 09:15:42 13° 55° (NE) 09:18:04 435.910
UNISAT 6 29 Apr 09:16:57 09:17:38 10° 57° (ENE) 09:18:21 437.425
ZACube-1 29 Apr 09:17:50 09:20:01 14° 89° (E) 09:22:12 437.345
AO-73 29 Apr 09:22:53 09:25:08 14° 90° (E) 09:27:26 145.935
PRISM 29 Apr 09:24:14 09:27:07 18° 62° (ENE) 09:30:02 437.425
PCSat 29 Apr 09:29:06 09:32:15 15° 28° (NNE) 09:35:24 145.827
M-CUBED/EXP-1 PRIME 29 Apr 09:29:36 09:32:15 15° 265° (W) 09:34:55 437.505
Oscar 11 29 Apr 09:34:38 09:37:21 16° 90° (E) 09:40:01 .
SO-50 29 Apr 09:47:48 09:50:00 13° 336° (NNW) 09:52:11 436.795
CUTE-I 29 Apr 09:50:27 09:54:07 19° 302° (WNW) 09:57:47 437.470
ISS 29 Apr 09:55:25 09:58:41 70° 337° (NNW) 10:01:56 437.550
AAUSAT CUBESAT 2 29 Apr 10:01:11 10:05:24 73° 103° (ESE) 10:09:35 437.432
XW-2A 29 Apr 10:01:54 10:04:45 26° 291° (WNW) 10:07:36 145.665 - 145.685
UWE-3 29 Apr 10:03:43 10:07:55 68° 102° (ESE) 10:12:10 435.000/436.395/437.385
DELFI C3 29 Apr 10:20:18 10:22:17 13° 89° (E) 10:24:17 145.870
CUBEBUG 2 29 Apr 10:23:21 10:27:21 46° 289° (WNW) 10:31:25 437.445
CUTE 1.7 + AOD 2 29 Apr 10:23:52 10:27:21 24° 294° (WNW) 10:30:48 437.475
HO-68 29 Apr 10:26:15 10:33:08 50° 296° (WNW) 10:40:00 435.675
TIGRISAT 29 Apr 10:27:24 10:31:32 45° 71° (ENE) 10:35:37 435.000
SEEDS 29 Apr 10:38:10 10:41:40 25° 294° (WNW) 10:45:10 437.485
O/OREOS (USA 219) 29 Apr 10:45:06 10:49:31 48° 109° (ESE) 10:53:57 437.305
Tancredo 1 29 Apr 10:48:02 10:50:57 35° 350° (N) 10:53:52 437.200
UNISAT 6 29 Apr 10:49:18 10:53:39 82° 75° (ENE) 10:57:58 437.425
ZACube-1 29 Apr 10:52:30 10:56:41 63° 287° (WNW) 11:00:57 437.345
FO-29 29 Apr 10:53:58 11:00:01 73° 74° (ENE) 11:05:30 435.910
AO-73 29 Apr 10:57:35 11:01:46 62° 287° (WNW) 11:06:01 145.935
PRISM 29 Apr 10:58:02 11:02:04 49° 261° (W) 11:06:08 437.425
RS-15 29 Apr 11:04:33 11:16:01 42° 334° (NNW) 11:27:35 29.354- 29.394
Oscar 11 29 Apr 11:09:33 11:13:49 56° 288° (WNW) 11:18:05 .
PCSat 29 Apr 11:11:35 11:16:55 53° 51° (NE) 11:22:14 145.827
DUCHIFAT 1 29 Apr 11:21:59 11:24:04 14° 60° (ENE) 11:26:08 145.980
EO-79 29 Apr 11:22:55 11:25:34 17° 62° (ENE) 11:28:15 145.935-145.965
ISS 29 Apr 11:32:29 11:35:30 33° 357° (N) 11:38:31 437.550
AAUSAT CUBESAT 2 29 Apr 11:38:17 11:40:17 13° 300° (WNW) 11:42:19 437.432
UWE-3 29 Apr 11:41:41 11:43:54 14° 299° (WNW) 11:46:06 435.000/436.395/437.385
OBJECT BX 29 Apr 11:50:01 11:53:41 79° 286° (WNW) 11:57:22 145.990 - 145.960
DELFI C3 29 Apr 11:53:30 11:57:27 58° 287° (WNW) 12:01:21 145.870
AIST 2D 29 Apr 11:57:49 12:01:13 57° 74° (ENE) 12:04:39 435.315
POLYITAN 1 29 Apr 12:01:36 12:05:29 38° 70° (ENE) 12:09:24 437.675
TIGRISAT 29 Apr 12:05:19 12:08:26 19° 268° (W) 12:11:33 435.000
AO-85 29 Apr 12:05:37 12:07:56 14° 112° (ESE) 12:10:11 145.980
QB50P2 29 Apr 12:08:12 12:12:15 48° 71° (ENE) 12:16:20 145.880/145.840
BUGSAT 1 29 Apr 12:11:16 12:13:35 15° 61° (ENE) 12:15:52 437.445
HO-68 29 Apr 12:16:27 12:19:14 13° 318° (NW) 12:22:00 435.675
